Regional Weather Roundup
Issued by NWS Charleston, SC

Current Version | Previous Version | Text Only | Print | Product List | Glossary Off
Versions: 1 2 3 4 5 6 7 8 9 10 11 12 13 14 15 16 17 18 19 20 21 22 23 24 25 26 27 28 29 30 31 32 33 34 35 36 37 38 39 40 41 42 43 44 45 46 47 48 49 50

000
ASUS42 KCHS 310227
RWRCHS

REGIONAL WEATHER ROUNDUP
NATIONAL WEATHER SERVICE CHARLESTON SC
1000 PM EDT SUN AUG 30 2015

NOTE: "FAIR" INDICATES FEW OR NO CLOUDS BELOW 12,000 FEET WITH NO
SIGNIFICANT WEATHER AND/OR OBSTRUCTIONS TO VISIBILITY.

NOT ALL STATIONS ARE QUALITY CONTROLLED BY THE NATIONAL
WEATHER SERVICE. USE DATA WITH CAUTION...ESPECIALLY
DEWPOINT OBSERVATIONS.

SCZ027-030-031-034>040-042>050-310300-
...SOUTHEAST SOUTH CAROLINA...

CITY           SKY/WX    TMP DP  RH WIND       PRES   REMARKS
N CHARLESTON   CLOUDY    75  73  93 E7        30.08S
WATERFRONT PRK   N/A     79  76  91 SE18      30.06S
MOUNT PLEASANT LGT RAIN  77  73  88 SE8       30.08F
JOHNS ISLAND   MOCLDY    79  75  89 E14G23    30.08S
PINOPOLIS        N/A     75  72  88 E6        30.02F
MONCKS CORNER  FAIR      73  72  94 CALM      30.09S
SUMMERVILLE    CLOUDY    73  73 100 CALM      30.10S
BEAUFORT MCAS  RAIN      77  75  93 SE8       30.05S
BEAUFORT ARPT  CLOUDY    77  75  94 SE6       30.05S
HILTON HEAD IS CLOUDY    77  75  94 E7        30.06F
WALTERBORO     HVY RAIN  75  72  88 CALM      30.09S
ALLENDALE      DRIZZLE   73  73 100 NE5       30.08S

...SOUTHERN MIDLANDS AND PEE DEE...

CITY           SKY/WX    TMP DP  RH WIND       PRES   REMARKS
GEORGETOWN     NOT AVBL
KINGSTREE      NOT AVBL
ORANGEBURG     LGT RAIN  74  71  91 CALM      30.11S FOG
BARNWELL       CLOUDY    73  73 100 NE6       30.11S FOG
AIKEN          LGT RAIN  66  64  94 NE8       30.14F
MANNING        CLOUDY    72  72 100 CALM      30.10F
COLUMBIA       HVY RAIN  72  69  90 N6        30.12S FOG
SUMTER         HVY RAIN  72  70  94 NE7       30.10F FOG
FLORENCE       CLOUDY    72  69  90 CALM      30.13R
MYRTLE BEACH   NOT AVBL
N MYRTLE BEACH CLOUDY    74  72  93 NE5       30.11F

$$

GAZ063-065-086>088-099>101-113>116-118-119-134>141-150-310300-
...SOUTHEAST GEORGIA...

CITY           SKY/WX    TMP DP  RH WIND       PRES   REMARKS
SAVANNAH ARPT  HVY RAIN  75  73  93 SE7       30.06S FOG
HUNTER AAF     CLOUDY    75  75 100 SE2       30.02F
FORT STEWART   CLOUDY    75  73  94 CALM      30.03R
STATESBORO     DRIZZLE   74  32  21 CALM      30.07S
SYLVANIA       RAIN      75  75 100 E6        30.08F
CLAXTON        NOT AVBL

...CSRA...CENTRAL AND FAR SOUTHEAST GEORGIA...

CITY           SKY/WX    TMP DP  RH WIND       PRES   REMARKS
THOMSON        MOCLDY    71  71 100 E7        30.15F
AUGUSTA-BUSH   CLOUDY    70  69  97 NE5       30.08F
AUGUSTA-DANIEL CLOUDY    72  68  87 N7        30.11S
SWAINSBORO     CLOUDY   N/A N/A N/A N6        30.08F
VIDALIA        MOCLDY    73  72  94 NE5       30.07R
EASTMAN        MOCLDY    74  74 100 N3        30.09R
HAZLEHURST     CLOUDY    77  77 100 CALM      30.04S
ALMA           MOCLDY    75  73  93 CALM      30.03S
WAYCROSS       CLOUDY    80  78  96 SE3       30.03S
JESUP          FAIR      79  77  94 CALM      30.04S
BAXLEY         MOCLDY    77  73  88 NE3       30.04S
BRUNSWICK      CLOUDY    79  73  83 SE6       30.04R
SAINT SIMONS   CLOUDY    79  75  87 SE9       30.03R

$$

SCZ027-028-034-036>038-045-046-048>050-GAZ119-141-310300-
...LAKE AND SUPPLEMENTAL COASTAL OBSERVATIONS...

STATION/POSITION TIME  TEMP    WIND        PRES    WAVE   SWELL
                       AIR SEA DIR/SP/G            HT/PER HT/PER/DIR
                 (UTC) (F)     (DEG/KT/KT) (MB)    (FT/S) (FT/S/D)
UPR LAKE MARION  NOT AVBL
WINYAH BAY       0145   78     110/ 10     1019.0S
LAKE MURRAY      0100   71      50/  5/  9 1019.0S
ACE BASIN NERRS  NOT AVBL
FORT PULASKI     NOT AVBL
SAPELO ISLAND    0200   78     140/  6     1017.0S

$$

ANZ835-935-AMZ111-154-330-350-352-354-370-450-454-472-310300-
...C-MAN AND BUOY OBSERVATIONS...

STATION/POSITION TIME  TEMP    WIND        PRES    WAVE   SWELL
                       AIR SEA DIR/SP/G            HT/PER HT/PER/DIR
                 (UTC) (F)     (DEG/KT/KT) (MB)    (FT/S) (FT/S/D)
BUOY 41004       0150   79 85  100/ 17/ 19 1018.4F   5/10   5/10
BUOY 41008       0150   80 84  150/ 14/ 17 1017.0R   5/10   3/ 90/10
FOLLY BEACH CMAN 0200   79     120/ 20/ 22 1018.7R
CAPERS NEARSHORE 0108   79     130/ 17/ 23 1018.8F
FRIPP NEARSHORE  0100   80     140/ 17/ 21 1016.9F


STATION/POSITION TIME  TEMP    WIND        PRES    WAVE   SWELL
                       AIR SEA DIR/SP/G            HT/PER HT/PER/DIR
                 (UTC) (F)     (DEG/KT/KT) (MB)    (FT/S) (FT/S/D)
5E ST. MARYS GA  0121      85                N/A     5/10   2/100/11
FRYING PAN BUOY  0150   79 82  120/  8/ 10 1020.9S   3/11   3/140/11
BUOY 41025       0150   79 81  280/  2/  4 1020.9R   3/11   3/140/11
CAPE LOOKOUT NC  0200   78     250/  2/  3 1020.5S
BUOY 41002       0150   84 84  170/  8/ 12 1020.9R   4/ 9   3/140/ 9
BUOY 41010       0120   85 86  150/ 14/ 16 1018.1R
ST AUGUSTINE FL  0200   79 84  110/ 19/ 21 1017.1S


$$


USA.gov is the U.S. government's official web portal to all federal, state and local government web resources and services.